contact: severine.martini@mio.osupytheas.fr, dominique.lefevre@mio.osupytheas.fr
Project:EMSO Ligure-ouest http://www.emso-fr.org/EMSO-France
Sensor Optode, line 4330 Serial 272 
DOI : "https://doi.org/10.17882/97948" 
Title:EMSO Ligure Ouest : Data BathyDock capteur Optode - deploiement "2023-04-28"
Datetime,Profondeur,Latitude,Longitude,optode_type,serial,O2_concentration,O2_saturation,Temperature,Calibrated_Phase,Temp_Compensated_Phase,phase_blue_light,phase_red_light,Amplitude_blue_light,Amplitude_red_light,thermistor_bridge
time,m,degree_north,degree_east,1,1,umol.l-1,%,degree_C,degree,degree,degree,degree,mV,mV,mV
2023-09-27T00:00:08,2420,42.8014,5.9826,4330,272,186.738,57.192,13.309,36.022,36.602,41.196,4.594,295.3,542.4,291.2
2023-09-27T00:03:07,2420,42.8014,5.9826,4330,272,186.518,57.123,13.308,36.037,36.617,41.210,4.593,295.3,542.4,291.3
2023-09-27T00:06:07,2420,42.8014,5.9826,4330,272,186.775,57.199,13.306,36.021,36.601,41.191,4.590,295.3,542.4,291.3
2023-09-27T00:09:07,2420,42.8014,5.9826,4330,272,186.846,57.220,13.306,36.017,36.597,41.192,4.594,295.3,542.4,291.4
2023-09-27T00:12:07,2420,42.8014,5.9826,4330,272,186.824,57.214,13.306,36.018,36.598,41.192,4.594,295.3,542.4,291.4
2023-09-27T00:15:08,2420,42.8014,5.9826,4330,272,186.699,57.176,13.306,36.026,36.606,41.197,4.591,295.3,542.3,291.4
2023-09-27T00:18:08,2420,42.8014,5.9826,4330,272,186.978,57.261,13.306,36.008,36.588,41.183,4.595,295.3,542.4,291.4
2023-09-27T00:21:08,2420,42.8014,5.9826,4330,272,186.658,57.167,13.309,36.027,36.607,41.202,4.595,295.3,542.4,291.3
2023-09-27T00:24:08,2420,42.8014,5.9826,4330,272,186.892,57.238,13.309,36.012,36.593,41.189,4.596,295.3,542.4,291.3
2023-09-27T00:27:08,2420,42.8014,5.9826,4330,272,186.701,57.177,13.306,36.025,36.606,41.198,4.592,295.3,542.4,291.3
2023-09-27T00:30:08,2420,42.8014,5.9826,4330,272,186.673,57.169,13.307,36.027,36.607,41.203,4.596,295.3,542.4,291.3
2023-09-27T00:33:07,2420,42.8014,5.9826,4330,272,186.580,57.141,13.307,36.033,36.613,41.204,4.591,295.2,542.4,291.3
2023-09-27T00:36:07,2420,42.8014,5.9826,4330,272,186.924,57.247,13.308,36.011,36.591,41.182,4.591,295.3,542.3,291.3
2023-09-27T00:39:07,2420,42.8014,5.9826,4330,272,186.734,57.187,13.306,36.024,36.604,41.196,4.592,295.2,542.4,291.3
2023-09-27T00:42:07,2420,42.8014,5.9826,4330,272,186.902,57.241,13.309,36.012,36.592,41.187,4.595,295.2,542.4,291.3
2023-09-27T00:45:07,2420,42.8014,5.9826,4330,272,187.046,57.286,13.309,36.002,36.583,41.177,4.595,295.3,542.4,291.3
2023-09-27T00:48:07,2420,42.8014,5.9826,4330,272,186.531,57.127,13.309,36.036,36.616,41.206,4.590,295.3,542.4,291.3
2023-09-27T00:51:07,2420,42.8014,5.9826,4330,272,186.950,57.257,13.309,36.008,36.589,41.185,4.596,295.3,542.4,291.3
2023-09-27T00:54:07,2420,42.8014,5.9826,4330,272,186.834,57.220,13.308,36.016,36.597,41.184,4.588,295.3,542.4,291.3
2023-09-27T00:57:07,2420,42.8014,5.9826,4330,272,186.847,57.224,13.308,36.016,36.596,41.191,4.595,295.3,542.3,291.3
2023-09-27T01:00:07,2420,42.8014,5.9826,4330,272,186.918,57.243,13.307,36.012,36.592,41.183,4.591,295.2,542.4,291.3
2023-09-27T01:03:07,2420,42.8014,5.9826,4330,272,186.713,57.181,13.307,36.025,36.605,41.199,4.594,295.3,542.4,291.3
2023-09-27T01:06:07,2420,42.8014,5.9826,4330,272,186.832,57.217,13.307,36.017,36.598,41.187,4.589,295.2,542.4,291.3
2023-09-27T01:09:07,2420,42.8014,5.9826,4330,272,186.705,57.178,13.306,36.026,36.606,41.198,4.592,295.3,542.3,291.4
2023-09-27T01:12:07,2420,42.8014,5.9826,4330,272,186.699,57.178,13.308,36.026,36.606,41.201,4.595,295.3,542.4,291.3
2023-09-27T01:15:07,2420,42.8014,5.9826,4330,272,186.777,57.200,13.306,36.021,36.601,41.198,4.597,295.2,542.4,291.4
2023-09-27T01:18:08,2420,42.8014,5.9826,4330,272,186.915,57.242,13.307,36.012,36.592,41.191,4.600,295.3,542.4,291.3
2023-09-27T01:21:08,2420,42.8014,5.9826,4330,272,186.904,57.240,13.307,36.012,36.593,41.188,4.595,295.2,542.3,291.3
2023-09-27T01:24:08,2420,42.8014,5.9826,4330,272,186.785,57.203,13.307,36.021,36.601,41.197,4.596,295.3,542.4,291.3
2023-09-27T01:27:08,2420,42.8014,5.9826,4330,272,186.834,57.219,13.308,36.016,36.596,41.190,4.594,295.2,542.5,291.3
2023-09-27T01:30:08,2420,42.8014,5.9826,4330,272,186.933,57.253,13.311,36.009,36.589,41.183,4.593,295.3,542.4,291.2
2023-09-27T01:33:07,2420,42.8014,5.9826,4330,272,186.678,57.171,13.307,36.027,36.607,41.204,4.597,295.3,542.4,291.3
2023-09-27T01:36:07,2420,42.8014,5.9826,4330,272,186.896,57.237,13.307,36.013,36.593,41.185,4.592,295.3,542.4,291.3
2023-09-27T01:39:07,2420,42.8014,5.9826,4330,272,186.604,57.146,13.306,36.032,36.612,41.200,4.588,295.3,542.4,291.4
2023-09-27T01:42:07,2420,42.8014,5.9826,4330,272,186.963,57.257,13.306,36.009,36.589,41.183,4.594,295.2,542.4,291.3
2023-09-27T01:45:07,2420,42.8014,5.9826,4330,272,186.608,57.149,13.307,36.032,36.612,41.201,4.588,295.3,542.4,291.3
2023-09-27T01:48:07,2420,42.8014,5.9826,4330,272,186.920,57.246,13.308,36.011,36.591,41.186,4.594,295.2,542.4,291.3
2023-09-27T01:51:07,2420,42.8014,5.9826,4330,272,186.954,57.256,13.308,36.009,36.589,41.182,4.592,295.3,542.3,291.3
2023-09-27T01:54:07,2420,42.8014,5.9826,4330,272,186.783,57.202,13.306,36.020,36.600,41.193,4.592,295.2,542.4,291.4
2023-09-27T01:57:08,2420,42.8014,5.9826,4330,272,186.756,57.194,13.307,36.022,36.602,41.193,4.591,295.3,542.4,291.3
2023-09-27T02:00:08,2420,42.8014,5.9826,4330,272,186.742,57.191,13.307,36.023,36.603,41.195,4.592,295.2,542.4,291.3
2023-09-27T02:03:07,2420,42.8014,5.9826,4330,272,186.931,57.250,13.308,36.010,36.590,41.186,4.596,295.3,542.4,291.3
2023-09-27T02:06:07,2420,42.8014,5.9826,4330,272,186.665,57.170,13.310,36.027,36.607,41.199,4.592,295.2,542.4,291.2
2023-09-27T02:09:07,2420,42.8014,5.9826,4330,272,186.842,57.222,13.308,36.016,36.596,41.192,4.596,295.3,542.4,291.3
2023-09-27T02:12:07,2420,42.8014,5.9826,4330,272,186.706,57.179,13.307,36.025,36.605,41.195,4.590,295.2,542.5,291.3
2023-09-27T02:15:07,2420,42.8014,5.9826,4330,272,186.835,57.222,13.310,36.016,36.596,41.185,4.589,295.3,542.4,291.2
2023-09-27T02:18:07,2420,42.8014,5.9826,4330,272,186.581,57.144,13.309,36.033,36.613,41.203,4.591,295.2,542.3,291.3
2023-09-27T02:21:07,2420,42.8014,5.9826,4330,272,186.763,57.200,13.310,36.020,36.600,41.196,4.596,295.3,542.5,291.2
2023-09-27T02:24:07,2420,42.8014,5.9826,4330,272,186.543,57.135,13.312,36.034,36.614,41.211,4.597,295.3,542.4,291.2
2023-09-27T02:27:07,2420,42.8014,5.9826,4330,272,186.642,57.161,13.308,36.029,36.609,41.199,4.590,295.2,542.4,291.3
2023-09-27T02:30:08,2420,42.8014,5.9826,4330,272,186.703,57.183,13.310,36.024,36.604,41.202,4.598,295.3,542.4,291.2
2023-09-27T02:33:07,2420,42.8014,5.9826,4330,272,186.683,57.175,13.309,36.025,36.605,41.200,4.594,295.3,542.3,291.3
2023-09-27T02:36:07,2420,42.8014,5.9826,4330,272,186.670,57.170,13.309,36.027,36.607,41.197,4.590,295.3,542.4,291.3
2023-09-27T02:39:08,2420,42.8014,5.9826,4330,272,186.658,57.167,13.309,36.027,36.607,41.200,4.593,295.2,542.4,291.3
2023-09-27T02:42:08,2420,42.8014,5.9826,4330,272,186.850,57.226,13.309,36.015,36.595,41.189,4.594,295.3,542.4,291.3
2023-09-27T02:45:08,2420,42.8014,5.9826,4330,272,186.619,57.160,13.313,36.028,36.608,41.196,4.588,295.4,542.4,291.1
2023-09-27T02:48:08,2420,42.8014,5.9826,4330,272,186.723,57.189,13.311,36.022,36.602,41.193,4.591,295.2,542.4,291.2
2023-09-27T02:51:08,2420,42.8014,5.9826,4330,272,186.831,57.224,13.312,36.015,36.595,41.188,4.593,295.3,542.3,291.2
2023-09-27T02:54:08,2420,42.8014,5.9826,4330,272,186.706,57.185,13.312,36.023,36.603,41.195,4.592,295.3,542.4,291.2
2023-09-27T02:57:08,2420,42.8014,5.9826,4330,272,186.694,57.179,13.310,36.025,36.605,41.194,4.589,295.2,542.4,291.2
2023-09-27T03:00:07,2420,42.8014,5.9826,4330,272,186.693,57.177,13.308,36.025,36.606,41.199,4.593,295.3,542.3,291.3
2023-09-27T03:03:07,2420,42.8014,5.9826,4330,272,186.860,57.229,13.309,36.015,36.595,41.184,4.589,295.3,542.4,291.2
2023-09-27T03:06:07,2420,42.8014,5.9826,4330,272,186.552,57.138,13.312,36.033,36.613,41.203,4.590,295.2,542.4,291.2
2023-09-27T03:09:07,2420,42.8014,5.9826,4330,272,186.866,57.232,13.310,36.013,36.594,41.186,4.592,295.3,542.4,291.2
2023-09-27T03:12:08,2420,42.8014,5.9826,4330,272,186.774,57.205,13.311,36.019,36.600,41.194,4.594,295.3,542.4,291.2
2023-09-27T03:15:08,2420,42.8014,5.9826,4330,272,186.678,57.175,13.310,36.026,36.606,41.199,4.593,295.3,542.4,291.2
2023-09-27T03:18:08,2420,42.8014,5.9826,4330,272,186.638,57.169,13.316,36.025,36.605,41.195,4.590,295.3,542.3,291.0
2023-09-27T03:21:08,2420,42.8014,5.9826,4330,272,186.707,57.185,13.311,36.023,36.604,41.197,4.594,295.3,542.3,291.2
2023-09-27T03:24:08,2420,42.8014,5.9826,4330,272,186.736,57.193,13.311,36.021,36.602,41.193,4.591,295.3,542.4,291.2
2023-09-27T03:27:08,2420,42.8014,5.9826,4330,272,186.648,57.166,13.310,36.027,36.607,41.200,4.593,295.3,542.4,291.2
2023-09-27T03:30:07,2420,42.8014,5.9826,4330,272,186.906,57.247,13.312,36.010,36.590,41.183,4.593,295.2,542.3,291.1
2023-09-27T03:33:07,2420,42.8014,5.9826,4330,272,186.642,57.165,13.311,36.028,36.608,41.199,4.591,295.3,542.3,291.2
2023-09-27T03:36:07,2420,42.8014,5.9826,4330,272,186.521,57.127,13.311,36.036,36.616,41.209,4.593,295.3,542.3,291.2
2023-09-27T03:39:07,2420,42.8014,5.9826,4330,272,186.601,57.158,13.316,36.028,36.608,41.197,4.589,295.3,542.3,291.0
2023-09-27T03:42:07,2420,42.8014,5.9826,4330,272,186.608,57.160,13.316,36.027,36.607,41.197,4.590,295.3,542.4,291.0
2023-09-27T03:45:07,2420,42.8014,5.9826,4330,272,186.666,57.176,13.314,36.024,36.604,41.196,4.591,295.4,542.3,291.1
2023-09-27T03:48:07,2420,42.8014,5.9826,4330,272,186.705,57.187,13.313,36.022,36.602,41.193,4.591,295.3,542.3,291.1
2023-09-27T03:51:07,2420,42.8014,5.9826,4330,272,186.694,57.183,13.313,36.023,36.603,41.195,4.591,295.3,542.3,291.1
2023-09-27T03:54:07,2420,42.8014,5.9826,4330,272,186.698,57.185,13.313,36.023,36.603,41.197,4.594,295.3,542.3,291.1
2023-09-27T03:57:08,2420,42.8014,5.9826,4330,272,186.601,57.154,13.313,36.029,36.609,41.203,4.593,295.3,542.3,291.1
2023-09-27T04:00:08,2420,42.8014,5.9826,4330,272,186.844,57.234,13.317,36.011,36.592,41.185,4.593,295.3,542.3,291.0
2023-09-27T04:03:07,2420,42.8014,5.9826,4330,272,186.849,57.231,13.313,36.013,36.593,41.187,4.594,295.3,542.3,291.1
2023-09-27T04:06:07,2420,42.8014,5.9826,4330,272,186.817,57.222,13.314,36.014,36.594,41.190,4.596,295.3,542.4,291.1
2023-09-27T04:09:07,2420,42.8014,5.9826,4330,272,186.809,57.218,13.313,36.015,36.596,41.191,4.595,295.3,542.5,291.1
2023-09-27T04:12:07,2420,42.8014,5.9826,4330,272,186.529,57.133,13.314,36.033,36.613,41.203,4.590,295.3,542.4,291.1
2023-09-27T04:15:07,2420,42.8014,5.9826,4330,272,186.602,57.155,13.314,36.029,36.609,41.202,4.593,295.3,542.4,291.1
2023-09-27T04:18:07,2420,42.8014,5.9826,4330,272,186.522,57.132,13.314,36.033,36.613,41.204,4.591,295.3,542.3,291.1
2023-09-27T04:21:07,2420,42.8014,5.9826,4330,272,186.784,57.213,13.315,36.016,36.596,41.193,4.596,295.2,542.4,291.1
2023-09-27T04:24:07,2420,42.8014,5.9826,4330,272,186.527,57.132,13.313,36.034,36.614,41.202,4.588,295.4,542.4,291.1
2023-09-27T04:27:08,2420,42.8014,5.9826,4330,272,186.864,57.237,13.314,36.012,36.592,41.186,4.595,295.3,542.4,291.1
2023-09-27T04:30:08,2420,42.8014,5.9826,4330,272,186.550,57.157,13.328,36.025,36.606,41.196,4.590,295.3,542.3,290.7
2023-09-27T04:33:07,2420,42.8014,5.9826,4330,272,186.657,57.173,13.314,36.025,36.605,41.203,4.597,295.3,542.3,291.1
2023-09-27T04:36:07,2420,42.8014,5.9826,4330,272,186.547,57.140,13.314,36.032,36.612,41.214,4.602,295.3,542.4,291.1
2023-09-27T04:39:07,2420,42.8014,5.9826,4330,272,186.761,57.207,13.315,36.017,36.598,41.195,4.598,295.3,542.3,291.0
2023-09-27T04:42:08,2420,42.8014,5.9826,4330,272,186.670,57.177,13.314,36.024,36.604,41.197,4.593,295.3,542.4,291.1
2023-09-27T04:45:08,2420,42.8014,5.9826,4330,272,186.776,57.211,13.315,36.017,36.597,41.192,4.595,295.3,542.3,291.0
2023-09-27T04:48:08,2420,42.8014,5.9826,4330,272,186.652,57.173,13.315,36.024,36.604,41.196,4.592,295.4,542.3,291.0
2023-09-27T04:51:08,2420,42.8014,5.9826,4330,272,186.675,57.179,13.315,36.024,36.604,41.196,4.593,295.3,542.3,291.1
2023-09-27T04:54:08,2420,42.8014,5.9826,4330,272,186.631,57.173,13.320,36.024,36.604,41.196,4.592,295.3,542.3,290.9
2023-09-27T04:57:08,2420,42.8014,5.9826,4330,272,186.696,57.192,13.320,36.020,36.600,41.189,4.589,295.3,542.3,290.9
2023-09-27T05:00:08,2420,42.8014,5.9826,4330,272,186.556,57.145,13.317,36.030,36.610,41.205,4.595,295.4,542.3,291.0
2023-09-27T05:03:07,2420,42.8014,5.9826,4330,272,186.862,57.242,13.319,36.010,36.590,41.181,4.591,295.3,542.4,290.9
2023-09-27T05:06:07,2420,42.8014,5.9826,4330,272,186.696,57.190,13.318,36.021,36.601,41.199,4.598,295.3,542.3,291.0
2023-09-27T05:09:07,2420,42.8014,5.9826,4330,272,186.477,57.122,13.317,36.036,36.616,41.206,4.590,295.4,542.3,291.0
2023-09-27T05:12:07,2420,42.8014,5.9826,4330,272,186.756,57.208,13.318,36.017,36.597,41.195,4.598,295.3,542.3,291.0
2023-09-27T05:15:07,2420,42.8014,5.9826,4330,272,186.584,57.154,13.317,36.029,36.609,41.206,4.597,295.3,542.3,291.0
2023-09-27T05:18:07,2420,42.8014,5.9826,4330,272,186.553,57.154,13.324,36.027,36.608,41.198,4.590,295.3,542.4,290.8
2023-09-27T05:21:07,2420,42.8014,5.9826,4330,272,186.654,57.179,13.319,36.023,36.603,41.193,4.590,295.3,542.3,290.9
2023-09-27T05:24:08,2420,42.8014,5.9826,4330,272,186.553,57.149,13.320,36.029,36.609,41.204,4.595,295.4,542.2,290.9
2023-09-27T05:27:08,2420,42.8014,5.9826,4330,272,186.525,57.138,13.318,36.032,36.612,41.205,4.593,295.3,542.4,291.0
2023-09-27T05:30:08,2420,42.8014,5.9826,4330,272,186.471,57.122,13.319,36.035,36.615,41.208,4.593,295.3,542.2,290.9
2023-09-27T05:33:07,2420,42.8014,5.9826,4330,272,186.587,57.158,13.319,36.027,36.607,41.202,4.595,295.3,542.2,290.9
2023-09-27T05:36:07,2420,42.8014,5.9826,4330,272,186.620,57.170,13.321,36.024,36.604,41.198,4.594,295.3,542.3,290.9
2023-09-27T05:39:07,2420,42.8014,5.9826,4330,272,186.752,57.208,13.319,36.016,36.597,41.189,4.593,295.3,542.3,290.9
2023-09-27T05:42:07,2420,42.8014,5.9826,4330,272,186.564,57.153,13.320,36.028,36.608,41.202,4.594,295.3,542.3,290.9
2023-09-27T05:45:07,2420,42.8014,5.9826,4330,272,186.630,57.172,13.320,36.024,36.604,41.194,4.590,295.3,542.3,290.9
2023-09-27T05:48:07,2420,42.8014,5.9826,4330,272,186.344,57.087,13.322,36.042,36.622,41.215,4.593,295.4,542.3,290.8
2023-09-27T05:51:07,2420,42.8014,5.9826,4330,272,186.738,57.202,13.318,36.018,36.599,41.193,4.595,295.4,542.3,291.0
2023-09-27T05:54:07,2420,42.8014,5.9826,4330,272,186.696,57.192,13.319,36.020,36.600,41.196,4.595,295.4,542.3,290.9
2023-09-27T05:57:07,2420,42.8014,5.9826,4330,272,186.582,57.156,13.319,36.027,36.607,41.202,4.594,295.4,542.3,290.9
2023-09-27T06:00:08,2420,42.8014,5.9826,4330,272,186.583,57.160,13.322,36.026,36.606,41.202,4.596,295.3,542.3,290.8
2023-09-27T06:03:07,2420,42.8014,5.9826,4330,272,186.642,57.183,13.325,36.020,36.601,41.194,4.594,295.4,542.3,290.7
2023-09-27T06:06:07,2420,42.8014,5.9826,4330,272,186.444,57.120,13.324,36.034,36.615,41.209,4.595,295.4,542.3,290.8
2023-09-27T06:09:07,2420,42.8014,5.9826,4330,272,186.568,57.156,13.322,36.027,36.607,41.197,4.590,295.4,542.2,290.8
2023-09-27T06:12:08,2420,42.8014,5.9826,4330,272,186.401,57.106,13.323,36.037,36.617,41.206,4.589,295.3,542.3,290.8
2023-09-27T06:15:08,2420,42.8014,5.9826,4330,272,186.545,57.147,13.321,36.029,36.609,41.203,4.594,295.4,542.3,290.9
2023-09-27T06:18:08,2420,42.8014,5.9826,4330,272,186.341,57.083,13.319,36.043,36.623,41.216,4.593,295.4,542.3,290.9
2023-09-27T06:21:08,2420,42.8014,5.9826,4330,272,186.460,57.122,13.321,36.035,36.615,41.208,4.594,295.3,542.2,290.9
2023-09-27T06:24:08,2420,42.8014,5.9826,4330,272,186.458,57.121,13.321,36.034,36.615,41.205,4.590,295.3,542.2,290.9
2023-09-27T06:27:07,2420,42.8014,5.9826,4330,272,186.554,57.149,13.320,36.029,36.609,41.198,4.589,295.4,542.3,290.9
2023-09-27T06:30:07,2420,42.8014,5.9826,4330,272,186.534,57.141,13.318,36.031,36.611,41.205,4.594,295.3,542.3,291.0
2023-09-27T06:33:08,2420,42.8014,5.9826,4330,272,186.538,57.148,13.323,36.029,36.609,41.202,4.593,295.4,542.3,290.8
2023-09-27T06:36:08,2420,42.8014,5.9826,4330,272,186.765,57.211,13.318,36.016,36.596,41.193,4.596,295.3,542.2,291.0
2023-09-27T06:39:08,2420,42.8014,5.9826,4330,272,186.596,57.159,13.318,36.028,36.608,41.198,4.591,295.4,542.3,291.0
2023-09-27T06:42:08,2420,42.8014,5.9826,4330,272,186.385,57.099,13.322,36.040,36.620,41.214,4.594,295.4,542.3,290.8
2023-09-27T06:45:08,2420,42.8014,5.9826,4330,272,186.353,57.103,13.332,36.036,36.616,41.207,4.591,295.4,542.3,290.5
2023-09-27T06:48:07,2420,42.8014,5.9826,4330,272,186.448,57.119,13.322,36.035,36.615,41.203,4.588,295.3,542.3,290.8
2023-09-27T06:51:07,2420,42.8014,5.9826,4330,272,186.462,57.121,13.320,36.035,36.615,41.210,4.595,295.4,542.3,290.9
2023-09-27T06:54:07,2420,42.8014,5.9826,4330,272,186.462,57.120,13.319,36.035,36.615,41.208,4.593,295.4,542.3,290.9
2023-09-27T06:57:07,2420,42.8014,5.9826,4330,272,186.401,57.101,13.319,36.039,36.619,41.209,4.590,295.3,542.3,290.9
2023-09-27T07:00:07,2420,42.8014,5.9826,4330,272,186.358,57.101,13.329,36.037,36.617,41.211,4.594,295.4,542.3,290.6
2023-09-27T07:03:07,2420,42.8014,5.9826,4330,272,186.459,57.135,13.331,36.029,36.610,41.205,4.596,295.4,542.3,290.5
2023-09-27T07:06:07,2420,42.8014,5.9826,4330,272,186.541,57.153,13.327,36.027,36.607,41.203,4.596,295.4,542.2,290.7
2023-09-27T07:09:07,2420,42.8014,5.9826,4330,272,186.516,57.142,13.324,36.030,36.610,41.204,4.594,295.4,542.3,290.8
2023-09-27T07:12:07,2420,42.8014,5.9826,4330,272,186.294,57.066,13.317,36.047,36.627,41.216,4.589,295.4,542.3,291.0
2023-09-27T07:15:07,2420,42.8014,5.9826,4330,272,186.238,57.068,13.332,36.043,36.623,41.215,4.592,295.3,542.3,290.5
2023-09-27T07:18:08,2420,42.8014,5.9826,4330,272,186.482,57.139,13.329,36.029,36.609,41.203,4.594,295.3,542.3,290.6
2023-09-27T07:21:08,2420,42.8014,5.9826,4330,272,186.516,57.148,13.328,36.027,36.608,41.200,4.593,295.3,542.3,290.6
2023-09-27T07:24:08,2420,42.8014,5.9826,4330,272,186.365,57.104,13.330,36.036,36.616,41.209,4.593,295.4,542.3,290.6
2023-09-27T07:27:08,2420,42.8014,5.9826,4330,272,186.257,57.065,13.325,36.046,36.626,41.214,4.589,295.4,542.3,290.7
2023-09-27T07:30:08,2420,42.8014,5.9826,4330,272,186.569,57.170,13.333,36.022,36.602,41.198,4.596,295.3,542.3,290.5
2023-09-27T07:33:07,2420,42.8014,5.9826,4330,272,186.405,57.124,13.336,36.031,36.611,41.203,4.592,295.3,542.3,290.4
2023-09-27T07:36:07,2420,42.8014,5.9826,4330,272,186.408,57.109,13.324,36.036,36.616,41.212,4.596,295.4,542.3,290.8
2023-09-27T07:39:07,2420,42.8014,5.9826,4330,272,186.562,57.160,13.326,36.025,36.605,41.204,4.599,295.4,542.3,290.7
2023-09-27T07:42:07,2420,42.8014,5.9826,4330,272,186.420,57.108,13.320,36.038,36.618,41.207,4.590,295.4,542.3,290.9
2023-09-27T07:45:07,2420,42.8014,5.9826,4330,272,186.498,57.138,13.325,36.030,36.610,41.203,4.593,295.4,542.3,290.8
2023-09-27T07:48:07,2420,42.8014,5.9826,4330,272,186.276,57.076,13.329,36.042,36.622,41.217,4.594,295.3,542.3,290.6
2023-09-27T07:51:07,2420,42.8014,5.9826,4330,272,186.509,57.140,13.324,36.030,36.610,41.202,4.592,295.4,542.3,290.8
2023-09-27T07:54:08,2420,42.8014,5.9826,4330,272,186.572,57.161,13.325,36.026,36.606,41.200,4.594,295.4,542.3,290.7
2023-09-27T07:57:08,2420,42.8014,5.9826,4330,272,186.647,57.196,13.334,36.016,36.596,41.191,4.595,295.4,542.3,290.4
2023-09-27T08:00:08,2420,42.8014,5.9826,4330,272,186.290,57.085,13.333,36.039,36.619,41.211,4.592,295.4,542.3,290.5
2023-09-27T08:03:07,2420,42.8014,5.9826,4330,272,186.531,57.159,13.333,36.024,36.604,41.199,4.595,295.4,542.3,290.5
2023-09-27T08:06:07,2420,42.8014,5.9826,4330,272,186.391,57.106,13.326,36.036,36.616,41.206,4.590,295.4,542.3,290.7
2023-09-27T08:09:07,2420,42.8014,5.9826,4330,272,186.535,57.151,13.326,36.027,36.607,41.202,4.595,295.4,542.3,290.7
2023-09-27T08:12:07,2420,42.8014,5.9826,4330,272,186.278,57.075,13.328,36.043,36.623,41.214,4.591,295.4,542.3,290.6
2023-09-27T08:15:07,2420,42.8014,5.9826,4330,272,186.442,57.128,13.330,36.031,36.611,41.207,4.596,295.4,542.3,290.6
2023-09-27T08:18:08,2420,42.8014,5.9826,4330,272,186.179,57.042,13.326,36.050,36.630,41.222,4.592,295.4,542.3,290.7
2023-09-27T08:21:08,2420,42.8014,5.9826,4330,272,186.326,57.090,13.329,36.039,36.619,41.216,4.597,295.4,542.3,290.6
2023-09-27T08:24:08,2420,42.8014,5.9826,4330,272,186.454,57.119,13.320,36.035,36.615,41.210,4.595,295.5,542.3,290.9
2023-09-27T08:27:08,2420,42.8014,5.9826,4330,272,186.293,57.072,13.322,36.044,36.624,41.220,4.595,295.4,542.4,290.8
2023-09-27T08:30:08,2420,42.8014,5.9826,4330,272,186.550,57.151,13.322,36.028,36.608,41.202,4.593,295.4,542.3,290.8
2023-09-27T08:33:07,2420,42.8014,5.9826,4330,272,186.490,57.135,13.325,36.030,36.611,41.205,4.594,295.4,542.3,290.7
2023-09-27T08:36:07,2420,42.8014,5.9826,4330,272,186.567,57.160,13.325,36.025,36.606,41.199,4.594,295.4,542.3,290.7
2023-09-27T08:39:07,2420,42.8014,5.9826,4330,272,186.351,57.094,13.326,36.039,36.619,41.209,4.589,295.4,542.4,290.7
2023-09-27T08:42:07,2420,42.8014,5.9826,4330,272,186.212,57.058,13.331,36.045,36.625,41.215,4.590,295.3,542.2,290.5
2023-09-27T08:45:07,2420,42.8014,5.9826,4330,272,186.296,57.082,13.329,36.041,36.621,41.209,4.588,295.4,542.4,290.6
2023-09-27T08:48:07,2420,42.8014,5.9826,4330,272,186.506,57.144,13.328,36.028,36.609,41.205,4.596,295.4,542.3,290.7
2023-09-27T08:51:07,2420,42.8014,5.9826,4330,272,186.447,57.126,13.327,36.032,36.612,41.208,4.596,295.5,542.3,290.7
2023-09-27T08:54:08,2420,42.8014,5.9826,4330,272,186.557,57.158,13.326,36.026,36.606,41.198,4.592,295.4,542.2,290.7
2023-09-27T08:57:08,2420,42.8014,5.9826,4330,272,186.135,57.033,13.330,36.052,36.632,41.224,4.593,295.5,542.3,290.6
2023-09-27T09:00:08,2420,42.8014,5.9826,4330,272,186.348,57.098,13.329,36.037,36.617,41.213,4.595,295.4,542.3,290.6
2023-09-27T09:03:07,2420,42.8014,5.9826,4330,272,186.283,57.081,13.332,36.041,36.621,41.212,4.591,295.4,542.3,290.5
2023-09-27T09:06:07,2420,42.8014,5.9826,4330,272,186.214,57.060,13.332,36.046,36.626,41.213,4.588,295.4,542.3,290.5
2023-09-27T09:09:07,2420,42.8014,5.9826,4330,272,186.089,57.022,13.332,36.053,36.633,41.224,4.591,295.4,542.3,290.5
2023-09-27T09:12:07,2420,42.8014,5.9826,4330,272,186.296,57.088,13.334,36.039,36.619,41.210,4.591,295.4,542.2,290.4
2023-09-27T09:15:07,2420,42.8014,5.9826,4330,272,186.355,57.093,13.324,36.040,36.620,41.215,4.595,295.5,542.3,290.8
2023-09-27T09:18:07,2420,42.8014,5.9826,4330,272,186.341,57.087,13.322,36.041,36.622,41.217,4.595,295.5,542.3,290.8
2023-09-27T09:21:07,2420,42.8014,5.9826,4330,272,186.274,57.066,13.322,36.046,36.626,41.219,4.593,295.5,542.3,290.8
2023-09-27T09:24:07,2420,42.8014,5.9826,4330,272,186.285,57.068,13.321,36.046,36.626,41.214,4.588,295.4,542.4,290.9
2023-09-27T09:27:07,2420,42.8014,5.9826,4330,272,186.307,57.077,13.323,36.044,36.624,41.214,4.590,295.5,542.4,290.8
2023-09-27T09:30:07,2420,42.8014,5.9826,4330,272,186.362,57.095,13.324,36.039,36.619,41.212,4.593,295.5,542.4,290.8
2023-09-27T09:33:07,2420,42.8014,5.9826,4330,272,186.269,57.067,13.324,36.046,36.626,41.217,4.591,295.4,542.4,290.8
2023-09-27T09:36:07,2420,42.8014,5.9826,4330,272,186.276,57.063,13.320,36.047,36.627,41.224,4.596,295.4,542.4,290.9
2023-09-27T09:39:07,2420,42.8014,5.9826,4330,272,186.375,57.091,13.318,36.042,36.622,41.213,4.591,295.4,542.4,291.0
2023-09-27T09:42:07,2420,42.8014,5.9826,4330,272,186.259,57.058,13.319,36.048,36.628,41.222,4.594,295.4,542.4,290.9
2023-09-27T09:45:07,2420,42.8014,5.9826,4330,272,186.267,57.061,13.320,36.048,36.628,41.226,4.598,295.4,542.4,290.9
2023-09-27T09:48:07,2420,42.8014,5.9826,4330,272,186.688,57.197,13.325,36.017,36.597,41.191,4.594,295.4,542.3,290.7
2023-09-27T09:51:08,2420,42.8014,5.9826,4330,272,186.457,57.123,13.323,36.033,36.613,41.206,4.592,295.3,542.3,290.8
2023-09-27T09:54:08,2420,42.8014,5.9826,4330,272,186.216,57.050,13.323,36.049,36.629,41.217,4.587,295.4,542.3,290.8
2023-09-27T09:57:08,2420,42.8014,5.9826,4330,272,186.500,57.134,13.321,36.032,36.612,41.208,4.595,295.4,542.3,290.9
2023-09-27T10:00:08,2420,42.8014,5.9826,4330,272,186.461,57.120,13.320,36.035,36.615,41.203,4.588,295.4,542.4,290.9